星链-2571 (STARLINK-2571 )

导读 | 星芒AI

STARLINK-2571 是 SpaceX Starlink 项目中的一颗低轨通信卫星,属于第二代星链卫星群。该卫星于2023年发射,旨在为全球提供高速、低延迟的互联网服务。它运行在约550公里高的近地轨道,配备先进通信设备,支持宽带数据传输。作为星链网络的重要组成部分,STARLINK-2571 有助于提升偏远地区的网络覆盖,推动全球互联网普及。其设计具备高可靠性和可维护性,为未来太空互联网建设奠定基础。

基本信息
目录编号:
48401
目录名称:
STARLINK-2571
国际标识:
2021-038BA
轨道中心:
EARTH
卫星名称:
星链-2571
卫星全名:
星链-2571 (STARLINK-2571 )
卫星状态:
在轨 (已飞行1689 天)
发射日期:
2021-05-04 UTC
国别 :
美国 (US)
星等 :
--
轨道信息
数据来源 国际轨道数据
星历时间: 2025-12-18T01:02:11+0800
15小时前
查看轨道信息
半长轴: 6925.362km
偏心率: 0.0001323
轨道倾角: 53.057°
近地点辐角 89.644°
升交点赤经 349.650°
平近点角 270.470°
近地点: 546.31km
远地点: 548.144km
周期: 95.592分钟
每日圈数: 15.063959
详细信息
固有亮度:
5
最大亮度:
2.5
卫星平台:
Starlink V1.0
覆盖范围:
全球
运营商:
太空探索技术公司
运营商所在国:
美国
制造商(研发单位):
太空探索技术公司
制造商所在国:
美国
使用方式:
暂无
卫星简介
星链(Starlink)计划是由太空探索技术公司(SpaceX)提出的一个巨型低轨卫星互联网星座项目,计划在2019年至2024年间在太空搭建由约1.2万颗卫星组成的“星链”网络,其中1584颗将部署在地球上空550千米处的近地轨道,并从2020年开始工作。该卫星仍在工作。
2D轨道图
3D轨道图
轨道高度分析图
轨道倾角分析图
轨道综合分析图
查看轨道综合分析图